Tracking 30995 objects as of 5-Jul-2025
HD Live streaming from Space Station
objects crossing your sky now

ONEWEB-0304

Track ONEWEB-0304 now!
10-day predictions
ONEWEB-0304 is classified as:


NORAD ID: 49092
Int'l Code: 2021-075T
Perigee: 1,199.5 km
Apogee: 1,202.2 km
Inclination: 87.9 °
Period: 109.3 minutes
Semi major axis: 7571 km
RCS: Unknown
Launch date: August 21, 2021
Source: United Kingdom (UK)
Launch site: TYURATAM MISSILE AND SPACE COMPLEX (TTMTR)
Your satellite tracking list
THORAD DELTA 1 DEB
Track 1 satellite(s)




NASA's NSSDC Master Catalog

Two Line Element Set (TLE):
1 49092U 21075T   25186.59565124 -.00000058  00000-0 -18269-3 0  9992
2 49092  87.9054  74.8619 0001776  77.0661 283.0669 13.17650574187933
Source of the keplerian elements: AFSPC